| time (UTC) | temp C | wind direction | speed KPH | gust KPH | rain 1hr cm | rain 24hr cm | rain mn cm | humidity % | barometer mb |
| 20260831104514 | 17 | 190 | 9.7 | 19.3 | 0.18 | 0.48 | 0.20 | 91 | 1006.6 |
| 20260831103515 | 17 | 192 | 9.7 | 14.5 | 0.08 | 0.38 | 0.10 | 90 | 1006.2 |
| 20260831102515 | 18 | 188 | 11.3 | 19.3 | 0.03 | 0.33 | 0.05 | 90 | 1006.4 |
| 20260831100514 | 18 | 158 | 3.2 | 14.5 | 0.00 | 0.30 | 0.03 | 90 | 1006.5 |
| 20260831094514 | 18 | 143 | 8.0 | 16.1 | 0.00 | 0.30 | 0.03 | 93 | 1006.6 |
| 20260831092515 | 17 | 139 | 6.4 | 12.9 | 0.00 | 0.30 | 0.03 | 94 | 1006.8 |
| 20260831091514 | 17 | 166 | 8.0 | 14.5 | 0.00 | 0.30 | 0.03 | 94 | 1007.0 |
| 20260831090515 | 17 | 162 | 8.0 | 16.1 | 0.00 | 0.30 | 0.03 | 94 | 1007.0 |
| 20260831085515 | 17 | 110 | 4.8 | 11.3 | 0.00 | 0.30 | 0.03 | 94 | 1007.2 |
| 20260831084514 | 17 | 154 | 4.8 | 12.9 | 0.03 | 0.30 | 0.03 | 94 | 1007.2 |
| 20260831083515 | 17 | 138 | 8.0 | 16.1 | 0.03 | 0.33 | 0.03 | 94 | 1007.2 |
| 20260831081515 | 16 | 178 | 4.8 | 19.3 | 0.03 | 0.33 | 0.03 | 93 | 1007.3 |
| 20260831080515 | 16 | 135 | 8.0 | 19.3 | 0.03 | 0.33 | 0.03 | 93 | 1007.3 |
| 20260831075514 | 16 | 119 | 6.4 | 14.5 | 0.03 | 0.33 | 0.03 | 93 | 1007.2 |
| 20260831072515 | 16 | 134 | 3.2 | 9.7 | 0.00 | 0.30 | 0.00 | 93 | 1007.5 |
| 20260831071516 | 16 | 157 | 4.8 | 9.7 | 0.00 | 0.30 | 0.00 | 93 | 1007.5 |
| 20260831063514 | 16 | 161 | 1.6 | 9.7 | 0.00 | 0.30 | 0.00 | 93 | 1007.3 |
| 20260831062514 | 16 | 168 | 1.6 | 9.7 | 0.00 | 0.30 | 0.00 | 93 | 1007.5 |
| 20260831060515 | 16 | 185 | 1.6 | 4.8 | 0.00 | 0.33 | 0.00 | 93 | 1007.6 |
| 20260831055514 | 16 | 148 | 3.2 | 8.0 | 0.00 | 0.36 | 0.00 | 93 | 1007.5 |
| 20260831053514 | 16 | 203 | 3.2 | 8.0 | 0.00 | 0.43 | 0.00 | 94 | 1007.7 |
| 20260831043516 | 15 | 202 | 4.8 | 11.3 | 0.00 | 0.43 | 0.00 | 94 | 1007.9 |
| 20260831033515 | 15 | 222 | 8.0 | 14.5 | 0.00 | 0.43 | 0.00 | 94 | 1007.7 |
| 20260831032515 | 16 | 209 | 8.0 | 16.1 | 0.00 | 0.43 | 0.00 | 94 | 1007.9 |
| 20260831031515 | 16 | 195 | 11.3 | 14.5 | 0.00 | 0.43 | 0.00 | 93 | 1008.1 |
| 20260831030515 | 16 | 213 | 8.0 | 14.5 | 0.00 | 0.43 | 0.00 | 93 | 1008.2 |
| 20260831025514 | 16 | 230 | 8.0 | 12.9 | 0.00 | 0.43 | 0.00 | 93 | 1008.2 |
| 20260831022515 | 16 | 231 | 9.7 | 16.1 | 0.00 | 0.43 | 0.00 | 93 | 1008.2 |
| 20260831021515 | 16 | 231 | 6.4 | 16.1 | 0.00 | 0.43 | 0.00 | 93 | 1008.2 |
| 20260831015515 | 16 | 230 | 8.0 | 16.1 | 0.00 | 0.43 | 0.00 | 93 | 1008.3 |
| 20260831012514 | 16 | 220 | 8.0 | 19.3 | 0.00 | 0.43 | 0.00 | 93 | 1008.3 |
| 20260831010515 | 16 | 231 | 4.8 | 9.7 | 0.00 | 0.43 | 0.00 | 93 | 1008.2 |
| 20260831005515 | 15 | 226 | 4.8 | 9.7 | 0.00 | 0.43 | 0.00 | 93 | 1008.2 |
| 20260831001515 | 15 | 199 | 4.8 | 9.7 | 0.00 | 0.43 | 0.00 | 93 | 1008.3 |
| 20260831000515 | 15 | 205 | 3.2 | 8.0 | 0.00 | 0.43 | 0.00 | 93 | 1008.3 |
| 20260830233514 | 15 | 226 | 4.8 | 8.0 | 0.00 | 0.43 | 0.00 | 92 | 1008.1 |
| 20260830232515 | 15 | 226 | 3.2 | 4.8 | 0.00 | 0.43 | 0.00 | 92 | 1008.1 |
| 20260830230514 | 15 | 226 | 3.2 | 8.0 | 0.00 | 0.43 | 0.00 | 92 | 1008.2 |
| 20260830221509 | 16 | 256 | 9.7 | 16.1 | 0.00 | 0.43 | 0.00 | 90 | 1008.1 |
| 20260830220515 | 16 | 263 | 11.3 | 14.5 | 0.00 | 0.43 | 0.00 | 90 | 1008.0 |
| 20260830214516 | 16 | 250 | 11.3 | 19.3 | 0.00 | 0.43 | 0.43 | 89 | 1008.1 |
| 20260830211515 | 16 | 260 | 14.5 | 24.1 | 0.00 | 0.43 | 0.43 | 90 | 1008.1 |
| 20260830205514 | 16 | 249 | 11.3 | 20.9 | 0.00 | 0.43 | 0.43 | 91 | 1008.0 |
| 20260830204514 | 16 | 249 | 8.0 | 11.3 | 0.00 | 0.43 | 0.43 | 91 | 1007.8 |
| 20260830203515 | 16 | 234 | 4.8 | 9.7 | 0.00 | 0.43 | 0.43 | 91 | 1007.7 |
| 20260830201516 | 16 | 240 | 11.3 | 19.3 | 0.00 | 0.43 | 0.43 | 91 | 1007.7 |
| 20260830195514 | 16 | 246 | 9.7 | 16.1 | 0.00 | 0.43 | 0.43 | 91 | 1007.3 |
| 20260830194515 | 16 | 229 | 9.7 | 19.3 | 0.00 | 0.43 | 0.43 | 92 | 1007.3 |
| 20260830191515 | 16 | 248 | 8.0 | 14.5 | 0.00 | 0.43 | 0.43 | 92 | 1006.8 |
| 20260830182516 | 16 | 318 | 9.7 | 20.9 | 0.00 | 0.43 | 0.43 | 93 | 1006.2 |
| 20260830180515 | 16 | 284 | 14.5 | 25.7 | 0.05 | 0.43 | 0.43 | 93 | 1005.9 |
| 20260830174515 | 17 | 327 | 9.7 | 19.3 | 0.05 | 0.43 | 0.43 | 94 | 1005.4 |
| 20260830173514 | 17 | 282 | 12.9 | 25.7 | 0.05 | 0.43 | 0.43 | 94 | 1005.3 |
| 20260830171515 | 17 | 298 | 14.5 | 33.8 | 0.05 | 0.43 | 0.43 | 93 | 1005.0 |
| 20260830170514 | 17 | 305 | 14.5 | 25.7 | 0.00 | 0.41 | 0.41 | 93 | 1004.7 |
| 20260830165515 | 17 | 299 | 9.7 | 22.5 | 0.00 | 0.41 | 0.41 | 93 | 1004.4 |
| 20260830163515 | 17 | 301 | 9.7 | 25.7 | 0.00 | 0.41 | 0.41 | 92 | 1004.0 |
| 20260830162515 | 17 | 303 | 16.1 | 29.0 | 0.00 | 0.41 | 0.41 | 92 | 1003.8 |
| 20260830161515 | 18 | 298 | 16.1 | 29.0 | 0.00 | 0.41 | 0.41 | 92 | 1003.4 |
| 20260830153515 | 20 | 279 | 19.3 | 32.2 | 0.00 | 0.41 | 0.41 | 88 | 1002.7 |
| 20260830151515 | 20 | 274 | 16.1 | 27.4 | 0.00 | 0.41 | 0.41 | 89 | 1002.5 |
| 20260830150515 | 20 | 273 | 19.3 | 25.7 | 0.00 | 0.41 | 0.41 | 90 | 1002.4 |
| 20260830144516 | 20 | 331 | 14.5 | 25.7 | 0.00 | 0.41 | 0.41 | 92 | 1002.2 |
| 20260830141515 | 19 | 322 | 11.3 | 19.3 | 0.00 | 0.41 | 0.41 | 93 | 1001.9 |
| 20260830134515 | 19 | 230 | 11.3 | 22.5 | 0.03 | 0.41 | 0.41 | 94 | 1001.8 |
| 20260830131515 | 18 | 216 | 9.7 | 25.7 | 0.20 | 0.41 | 0.41 | 94 | 1001.7 |
| 20260830130516 | 18 | 315 | 11.3 | 25.7 | 0.23 | 0.38 | 0.38 | 94 | 1001.6 |
| 20260830125516 | 18 | 224 | 14.5 | 22.5 | 0.23 | 0.38 | 0.38 | 94 | 1001.5 |
| 20260830123515 | 18 | 281 | 16.1 | 25.7 | 0.23 | 0.38 | 0.38 | 92 | 1001.4 |
| 20260830120516 | 21 | 194 | 14.5 | 24.1 | 0.00 | 0.15 | 0.15 | 87 | 1001.4 |
| 20260830113517 | 19 | 187 | 19.3 | 25.7 | 0.00 | 0.15 | 0.15 | 92 | 1001.4 |
| 20260830111517 | 18 | 197 | 12.9 | 22.5 | 0.00 | 0.15 | 0.15 | 92 | 1001.4 |